Hourly Data Report for June 17, 2021

CARBERRY CS
MANITOBA
Current Station Operator: ECCC - MSC

49°54'20.900" N
99°21'26.800" W
383.50 m
5010547
71170
WZE

Download Data

Hourly Data (June 2021)
Hourly Data Report for June 17, 2021
TIME
LST
Temp Definition
°C
Dew Point Definition
°C
Rel Hum Definition
%
Precip. Amount Definition
mm

Wind Dir Definition
10's deg

Wind Spd Definition
km/h
Visibility Definition
km
Stn Press Definition
kPa
Hmdx Definition


Wind Chill Definition


Weather Definition


00:00 15.6 8.8 64 0.0 24 10   96.62     LegendNANA
01:00 15.0 8.6 66 0.0 24 11   96.62     LegendNANA
02:00 12.5 7.5 71 0.0 24 7   96.60     LegendNANA
03:00 12.1 8.5 79 0.0 23 5   96.56     LegendNANA
04:00 12.6 8.7 77 0.0 25 9   96.56     LegendNANA
05:00 12.5 8.7 78 0.0 24 8   96.54     LegendNANA
06:00 14.2 9.3 72 0.0 24 9   96.55     LegendNANA
07:00 16.6 10.2 65 0.0 25 10   96.49     LegendNANA
08:00 19.1 10.0 55 0.0 25 18   96.43     LegendNANA
09:00 20.8 10.8 53 0.0 25 17   96.38     LegendNANA
10:00 23.4 10.3 43 0.0 24 16   96.31 25   LegendNANA
11:00 24.6 10.3 40 0.0 28 26   96.31 26   LegendNANA
12:00 25.2 9.4 37 0.0 27 26   96.29 26   LegendNANA
13:00 26.1 5.9 27 0.0 27 29   96.25 26   LegendNANA
14:00 26.9 3.6 22 0.0 28 36   96.20 26   LegendNANA
15:00 26.9 5.2 25 0.0 27 37   96.16 26   LegendNANA
16:00 26.9 3.0 21 0.0 29 42   96.14 26   LegendNANA
17:00 26.0 2.3 21 0.0 29 44   96.15     LegendNANA
18:00 24.9 3.0 24 0.0 29 37   96.20     LegendNANA
19:00 23.6 2.8 26 0.0 30 37   96.23     LegendNANA
20:00 21.8 4.4 32 0.0 30 21   96.26     LegendNANA
21:00 19.3 4.8 38 0.0 28 16   96.30     LegendNANA
22:00 16.3 5.9 50 0.0 27 12   96.33     LegendNANA
23:00 14.4 5.9 57 0.0 26 12   96.35     LegendNANA

Notes on Data Quality.

Legend

  • E = Estimated
  • M = Missing
  • NA = Not Available*
  • [empty] = Indicates an unobserved value
Date modified: